Shungnak AP, Shungnak, AK, AK

6:16 PM AKST on December 11, 2019 (GMT -0900)
Shungnak AP, Shungnak, AK

Weather History for PAGH - October, 2019

Change the Weather History Date:

Sunday, October 20, 2019

  Actual Average (PAFM) Record (PAFM)
Temperature  
Mean Temperature 27 °F -  
Max Temperature 30 °F 20 °F 39 °F (2005)
Min Temperature 24 °F 12 °F -15 °F (1986)
Degree Days  
Heating Degree Days 38    
Moisture  
Dew Point 21 °F    
Average Humidity 74    
Maximum Humidity 81    
Minimum Humidity 69    
Precipitation  
Precipitation 0.00 in - - ()
Sea Level Pressure  
Sea Level Pressure 29.77 in    
Wind  
Wind Speed 10 mph (ESE)    
Max Wind Speed 16 mph    
Max Gust Speed 21 mph    
Visibility 10 miles    
Events      
Averages and records for this station are not official NWS values.
T = Trace of Precipitation, MM = Missing Value Source: NWS Daily Summary

Daily Weather History Graph

Daily Weather History Graph

Search for Another Location

Airport or City:

Astronomy

Oct. 20, 2019 Rise Set
Actual Time 9:46 AM AKDT 6:39 PM AKDT
Civil Twilight 8:50 AM AKDT 7:35 PM AKDT
Nautical Twilight 7:48 AM AKDT 8:36 PM AKDT
Astronomical Twilight 6:46 AM AKDT 9:38 PM AKDT
Moon 9:15 PM AKDT (10/20) 7:12 PM AKDT (10/20)
Length of Visible Light 10h 44m
Length of Day
8h 53m
Waning Gibbous, 58% of the Moon is Illuminated
Oct 20
Waning Gibbous
Oct 21
Last Quarter
Oct 27
New
Nov 4
First Quarter
Nov 12
Full

Hourly Weather History & Observations

Time (AKDT) Temp. Windchill Dew Point Humidity Pressure Visibility Wind Dir Wind Speed Gust Speed Precip Events Conditions
12:56 AM 27.0 °F 17.3 °F 19.9 °F 75% 29.73 in 10.0 mi East 10.4 mph - N/A   Clear
1:56 AM 25.0 °F 19.3 °F 19.0 °F 78% 29.74 in 10.0 mi SSE 4.6 mph - N/A   Clear
2:56 AM 25.0 °F 17.1 °F 19.0 °F 78% 29.75 in 10.0 mi SE 6.9 mph - N/A   Clear
3:56 AM 25.0 °F 14.8 °F 19.0 °F 78% 29.75 in 10.0 mi East 10.4 mph - N/A   Clear
4:56 AM 26.1 °F 15.6 °F 19.9 °F 78% 29.75 in 10.0 mi East 11.5 mph - N/A   Clear
5:56 AM 26.1 °F 15.6 °F 19.9 °F 78% 29.76 in 10.0 mi East 11.5 mph - N/A   Clear
6:56 AM 24.1 °F 14.4 °F 19.0 °F 81% 29.76 in 10.0 mi ESE 9.2 mph - N/A   Clear
7:56 AM 24.1 °F 15.2 °F 19.0 °F 81% 29.77 in 10.0 mi SE 8.1 mph - N/A   Overcast
8:56 AM 27.0 °F 18.0 °F 21.0 °F 78% 29.77 in 10.0 mi East 9.2 mph - N/A   Overcast
9:56 AM 28.0 °F 18.6 °F 21.0 °F 75% 29.77 in 10.0 mi East 10.4 mph - N/A   Overcast
10:56 AM 28.0 °F 18.1 °F 21.0 °F 75% 29.78 in 10.0 mi East 11.5 mph - N/A   Overcast
11:56 AM 28.9 °F 17.7 °F 21.0 °F 72% 29.78 in 10.0 mi East 15.0 mph - N/A   Overcast
12:56 PM 30.0 °F 19.5 °F 21.9 °F 72% 29.78 in 9.0 mi East 13.8 mph - N/A   Overcast
1:56 PM 30.0 °F 20.5 °F 21.9 °F 72% 29.78 in 10.0 mi ESE 11.5 mph - N/A   Overcast
2:56 PM 30.9 °F 20.2 °F 21.9 °F 69% 29.78 in 10.0 mi East 15.0 mph 20.7 mph N/A   Overcast
3:56 PM 30.9 °F 21.2 °F 21.9 °F 69% 29.78 in 10.0 mi East 12.7 mph 19.6 mph N/A   Overcast
4:56 PM 30.9 °F 19.8 °F 21.9 °F 69% 29.78 in 9.0 mi East 16.1 mph - N/A   Overcast
5:56 PM 30.9 °F 20.7 °F 21.9 °F 69% 29.77 in 10.0 mi East 13.8 mph 19.6 mph N/A   Overcast
6:56 PM 30.9 °F 21.7 °F 21.9 °F 69% 29.77 in 10.0 mi East 11.5 mph - N/A   Overcast
7:56 PM 30.9 °F 21.7 °F 21.9 °F 69% 29.77 in 10.0 mi East 11.5 mph - N/A   Overcast
8:56 PM 30.0 °F 20.5 °F 21.9 °F 72% 29.76 in 10.0 mi East 11.5 mph - N/A   Overcast
10:56 PM 30.0 °F 22.4 °F 21.9 °F 72% 29.77 in 10.0 mi ESE 8.1 mph - N/A   Overcast
11:56 PM 30.0 °F 21.7 °F 21.0 °F 69% 29.77 in 10.0 mi ESE 9.2 mph - N/A   Overcast